PRIVATE WETTERSTATION BILLIGHEIM-ALLFELD                       ZURCK
Wetterdaten: Samstag, 14.06.2014
Datum Zeit Temp. A. Temp. A. min Temp. A. max Feuchte A. Luftdruck Regen Wind Richtung Richtung Sonnenschein ET Solar Taupunkt Windchill Windben Empfang
14.06.2014 00:00 15,4 C 15,4 C 15,6 C 71 % 1017,5 hPa 0,0 l/m 0,0 km/h (0 Bft) N 0 0 min 0,025 mm 0 W/m 10,2 C 15,4 C 0,0 km/h (0 Bft) 97 %
14.06.2014 00:10 15,1 C 15,1 C 15,4 C 71 % 1017,4 hPa 0,0 l/m 0,0 km/h (0 Bft) NW 315 0 min 0,000 mm 0 W/m 9,9 C 15,1 C 1,6 km/h (1 Bft) 98 %
14.06.2014 00:20 15,0 C 15,0 C 15,1 C 73 % 1017,5 hPa 0,0 l/m 0,0 km/h (0 Bft) N 0 0 min 0,000 mm 0 W/m 10,2 C 15,0 C 0,0 km/h (0 Bft) 97 %
14.06.2014 00:30 14,7 C 14,7 C 15,0 C 74 % 1017,4 hPa 0,0 l/m 0,0 km/h (0 Bft) N 0 0 min 0,000 mm 0 W/m 10,1 C 14,7 C 0,0 km/h (0 Bft) 98 %
14.06.2014 00:40 14,5 C 14,5 C 14,7 C 75 % 1017,6 hPa 0,0 l/m 0,0 km/h (0 Bft) N 0 0 min 0,000 mm 0 W/m 10,1 C 14,5 C 0,0 km/h (0 Bft) 98 %
14.06.2014 00:50 14,3 C 14,3 C 14,5 C 76 % 1017,7 hPa 0,0 l/m 0,0 km/h (0 Bft) N 0 0 min 0,000 mm 0 W/m 10,1 C 14,3 C 0,0 km/h (0 Bft) 96 %
14.06.2014 01:00 14,2 C 14,2 C 14,3 C 76 % 1017,6 hPa 0,0 l/m 0,0 km/h (0 Bft) N 0 0 min 0,025 mm 0 W/m 10,0 C 14,2 C 0,0 km/h (0 Bft) 97 %
14.06.2014 01:10 14,0 C 14,0 C 14,2 C 77 % 1017,7 hPa 0,0 l/m 0,0 km/h (0 Bft) N 0 0 min 0,000 mm 0 W/m 10,0 C 14,0 C 0,0 km/h (0 Bft) 98 %
14.06.2014 01:20 13,8 C 13,8 C 14,0 C 78 % 1017,5 hPa 0,0 l/m 0,0 km/h (0 Bft) N 0 0 min 0,000 mm 0 W/m 10,0 C 13,8 C 0,0 km/h (0 Bft) 98 %
14.06.2014 01:30 13,6 C 13,6 C 13,8 C 78 % 1017,4 hPa 0,0 l/m 0,0 km/h (0 Bft) N 0 0 min 0,000 mm 0 W/m 9,8 C 13,6 C 0,0 km/h (0 Bft) 97 %
14.06.2014 01:40 13,2 C 13,2 C 13,6 C 80 % 1017,3 hPa 0,0 l/m 0,0 km/h (0 Bft) N 0 0 min 0,000 mm 0 W/m 9,8 C 13,2 C 0,0 km/h (0 Bft) 98 %
14.06.2014 01:50 12,9 C 12,9 C 13,2 C 81 % 1017,3 hPa 0,0 l/m 0,0 km/h (0 Bft) N 0 0 min 0,000 mm 0 W/m 9,7 C 12,9 C 0,0 km/h (0 Bft) 98 %
14.06.2014 02:00 12,7 C 12,7 C 12,9 C 81 % 1017,2 hPa 0,0 l/m 0,0 km/h (0 Bft) N 0 0 min 0,025 mm 0 W/m 9,5 C 12,7 C 0,0 km/h (0 Bft) 98 %
14.06.2014 02:10 12,6 C 12,6 C 12,7 C 82 % 1017,2 hPa 0,0 l/m 0,0 km/h (0 Bft) N 0 0 min 0,000 mm 0 W/m 9,6 C 12,6 C 0,0 km/h (0 Bft) 97 %
14.06.2014 02:20 12,6 C 12,6 C 12,6 C 82 % 1017,2 hPa 0,0 l/m 0,0 km/h (0 Bft) N 0 0 min 0,000 mm 0 W/m 9,6 C 12,6 C 0,0 km/h (0 Bft) 98 %
14.06.2014 02:30 12,5 C 12,5 C 12,6 C 82 % 1017,2 hPa 0,0 l/m 0,0 km/h (0 Bft) N 0 0 min 0,000 mm 0 W/m 9,5 C 12,5 C 0,0 km/h (0 Bft) 98 %
14.06.2014 02:40 12,3 C 12,3 C 12,5 C 82 % 1017,2 hPa 0,0 l/m 0,0 km/h (0 Bft) N 0 0 min 0,000 mm 0 W/m 9,3 C 12,3 C 0,0 km/h (0 Bft) 97 %
14.06.2014 02:50 12,3 C 12,3 C 12,4 C 82 % 1017,2 hPa 0,0 l/m 0,0 km/h (0 Bft) N 0 0 min 0,000 mm 0 W/m 9,3 C 12,3 C 0,0 km/h (0 Bft) 97 %
14.06.2014 03:00 12,2 C 12,2 C 12,3 C 82 % 1017,1 hPa 0,0 l/m 0,0 km/h (0 Bft) N 0 0 min 0,025 mm 0 W/m 9,2 C 12,2 C 0,0 km/h (0 Bft) 98 %
14.06.2014 03:10 12,2 C 12,2 C 12,2 C 83 % 1017,1 hPa 0,0 l/m 0,0 km/h (0 Bft) NW 315 0 min 0,000 mm 0 W/m 9,4 C 12,2 C 1,6 km/h (1 Bft) 97 %
14.06.2014 03:20 12,2 C 12,2 C 12,2 C 83 % 1017,1 hPa 0,0 l/m 0,0 km/h (0 Bft) N 0 0 min 0,000 mm 0 W/m 9,4 C 12,2 C 0,0 km/h (0 Bft) 98 %
14.06.2014 03:30 12,2 C 12,1 C 12,2 C 83 % 1017,1 hPa 0,0 l/m 0,0 km/h (0 Bft) N 0 0 min 0,000 mm 0 W/m 9,4 C 12,2 C 0,0 km/h (0 Bft) 97 %
14.06.2014 03:40 12,1 C 12,1 C 12,2 C 82 % 1017,1 hPa 0,0 l/m 0,0 km/h (0 Bft) N 0 0 min 0,000 mm 0 W/m 9,1 C 12,1 C 0,0 km/h (0 Bft) 99 %
14.06.2014 03:50 12,0 C 12,0 C 12,1 C 83 % 1017,1 hPa 0,0 l/m 0,0 km/h (0 Bft) N 0 0 min 0,000 mm 0 W/m 9,2 C 12,0 C 0,0 km/h (0 Bft) 97 %
14.06.2014 04:00 11,9 C 11,9 C 12,0 C 83 % 1017,0 hPa 0,0 l/m 0,0 km/h (0 Bft) N 0 0 min 0,000 mm 0 W/m 9,1 C 11,9 C 0,0 km/h (0 Bft) 98 %
14.06.2014 04:10 11,8 C 11,8 C 11,9 C 84 % 1016,8 hPa 0,0 l/m 0,0 km/h (0 Bft) N 0 0 min 0,000 mm 0 W/m 9,2 C 11,8 C 0,0 km/h (0 Bft) 97 %
14.06.2014 04:20 11,7 C 11,7 C 11,8 C 84 % 1016,9 hPa 0,0 l/m 0,0 km/h (0 Bft) N 0 0 min 0,000 mm 0 W/m 9,1 C 11,7 C 0,0 km/h (0 Bft) 97 %
14.06.2014 04:30 11,7 C 11,7 C 11,7 C 84 % 1016,8 hPa 0,0 l/m 0,0 km/h (0 Bft) N 0 0 min 0,000 mm 0 W/m 9,1 C 11,7 C 0,0 km/h (0 Bft) 97 %
14.06.2014 04:40 11,6 C 11,6 C 11,7 C 84 % 1016,8 hPa 0,0 l/m 0,0 km/h (0 Bft) N 0 0 min 0,000 mm 0 W/m 9,0 C 11,6 C 0,0 km/h (0 Bft) 97 %
14.06.2014 04:50 11,6 C 11,6 C 11,7 C 84 % 1016,7 hPa 0,0 l/m 0,0 km/h (0 Bft) N 0 0 min 0,000 mm 0 W/m 9,0 C 11,6 C 0,0 km/h (0 Bft) 98 %
14.06.2014 05:00 11,5 C 11,5 C 11,6 C 84 % 1016,7 hPa 0,0 l/m 0,0 km/h (0 Bft) NW 315 0 min 0,000 mm 0 W/m 8,9 C 11,5 C 3,2 km/h (1 Bft) 98 %
14.06.2014 05:10 11,4 C 11,4 C 11,5 C 84 % 1016,8 hPa 0,0 l/m 0,0 km/h (0 Bft) N 0 0 min 0,000 mm 0 W/m 8,8 C 11,4 C 0,0 km/h (0 Bft) 98 %
14.06.2014 05:20 11,3 C 11,3 C 11,4 C 85 % 1016,7 hPa 0,0 l/m 0,0 km/h (0 Bft) N 0 0 min 0,000 mm 0 W/m 8,9 C 11,3 C 0,0 km/h (0 Bft) 98 %
14.06.2014 05:30 11,2 C 11,2 C 11,3 C 85 % 1016,6 hPa 0,0 l/m 0,0 km/h (0 Bft) N 0 0 min 0,000 mm 7 W/m 8,8 C 11,2 C 0,0 km/h (0 Bft) 98 %
14.06.2014 05:40 11,1 C 11,1 C 11,2 C 85 % 1016,6 hPa 0,0 l/m 0,0 km/h (0 Bft) N 0 0 min 0,000 mm 14 W/m 8,7 C 11,1 C 0,0 km/h (0 Bft) 97 %
14.06.2014 05:50 11,2 C 11,1 C 11,2 C 85 % 1016,6 hPa 0,0 l/m 0,0 km/h (0 Bft) NW 315 0 min 0,000 mm 18 W/m 8,8 C 11,2 C 1,6 km/h (1 Bft) 98 %
14.06.2014 06:00 11,1 C 11,1 C 11,2 C 85 % 1016,5 hPa 0,0 l/m 0,0 km/h (0 Bft) NW 315 0 min 0,000 mm 16 W/m 8,7 C 11,1 C 1,6 km/h (1 Bft) 97 %
14.06.2014 06:10 11,0 C 11,0 C 11,1 C 85 % 1016,4 hPa 0,0 l/m 0,0 km/h (0 Bft) N 0 0 min 0,000 mm 16 W/m 8,6 C 11,0 C 0,0 km/h (0 Bft) 97 %
14.06.2014 06:20 10,9 C 10,9 C 11,0 C 86 % 1016,4 hPa 0,0 l/m 0,0 km/h (0 Bft) N 0 0 min 0,000 mm 18 W/m 8,7 C 10,9 C 0,0 km/h (0 Bft) 98 %
14.06.2014 06:30 10,9 C 10,9 C 10,9 C 86 % 1016,4 hPa 0,0 l/m 0,0 km/h (0 Bft) N 0 0 min 0,000 mm 19 W/m 8,7 C 10,9 C 0,0 km/h (0 Bft) 98 %
14.06.2014 06:40 11,1 C 10,9 C 11,1 C 86 % 1016,4 hPa 0,0 l/m 0,0 km/h (0 Bft) N 0 0 min 0,000 mm 21 W/m 8,8 C 11,1 C 0,0 km/h (0 Bft) 98 %
14.06.2014 06:50 11,2 C 11,1 C 11,2 C 86 % 1016,3 hPa 0,0 l/m 0,0 km/h (0 Bft) SW 225 0 min 0,000 mm 23 W/m 8,9 C 11,2 C 3,2 km/h (1 Bft) 98 %
14.06.2014 07:00 11,3 C 11,2 C 11,3 C 86 % 1016,4 hPa 0,0 l/m 0,0 km/h (0 Bft) W-SW 247 0 min 0,000 mm 26 W/m 9,0 C 11,3 C 3,2 km/h (1 Bft) 98 %
14.06.2014 07:10 11,5 C 11,3 C 11,5 C 86 % 1016,5 hPa 0,0 l/m 0,0 km/h (0 Bft) N 0 0 min 0,000 mm 37 W/m 9,2 C 11,5 C 0,0 km/h (0 Bft) 98 %
14.06.2014 07:20 11,7 C 11,5 C 11,7 C 86 % 1016,6 hPa 0,0 l/m 0,0 km/h (0 Bft) W 270 0 min 0,000 mm 111 W/m 9,4 C 11,7 C 1,6 km/h (1 Bft) 98 %
14.06.2014 07:30 12,3 C 11,7 C 12,3 C 87 % 1016,5 hPa 0,0 l/m 1,6 km/h (1 Bft) W 270 0 min 0,000 mm 134 W/m 10,2 C 12,3 C 6,4 km/h (2 Bft) 98 %
14.06.2014 07:40 12,9 C 12,3 C 12,9 C 85 % 1016,6 hPa 0,0 l/m 3,2 km/h (1 Bft) NW 315 0 min 0,000 mm 141 W/m 10,4 C 12,9 C 6,4 km/h (2 Bft) 97 %
14.06.2014 07:50 13,6 C 12,9 C 13,6 C 84 % 1016,6 hPa 0,0 l/m 0,0 km/h (0 Bft) NW 315 0 min 0,000 mm 148 W/m 10,9 C 13,6 C 6,4 km/h (2 Bft) 98 %
14.06.2014 08:00 14,2 C 13,6 C 14,2 C 83 % 1016,6 hPa 0,0 l/m 1,6 km/h (1 Bft) NW 315 10 min 0,051 mm 156 W/m 11,4 C 14,2 C 6,4 km/h (2 Bft) 98 %
14.06.2014 08:10 14,7 C 14,2 C 14,7 C 81 % 1016,5 hPa 0,0 l/m 1,6 km/h (1 Bft) W-NW 292 10 min 0,000 mm 229 W/m 11,5 C 14,7 C 6,4 km/h (2 Bft) 97 %
14.06.2014 08:20 15,2 C 14,7 C 15,2 C 79 % 1016,5 hPa 0,0 l/m 1,6 km/h (1 Bft) NW 315 10 min 0,000 mm 251 W/m 11,6 C 15,2 C 6,4 km/h (2 Bft) 98 %
14.06.2014 08:30 15,6 C 15,2 C 15,6 C 76 % 1016,6 hPa 0,0 l/m 0,0 km/h (0 Bft) N-NW 337 10 min 0,000 mm 176 W/m 11,4 C 15,6 C 4,8 km/h (1 Bft) 97 %
14.06.2014 08:40 15,9 C 15,6 C 15,9 C 75 % 1016,6 hPa 0,0 l/m 0,0 km/h (0 Bft) NW 315 10 min 0,000 mm 237 W/m 11,5 C 15,9 C 6,4 km/h (2 Bft) 98 %
14.06.2014 08:50 16,4 C 15,9 C 16,4 C 74 % 1016,5 hPa 0,0 l/m 0,0 km/h (0 Bft) NW 315 10 min 0,000 mm 448 W/m 11,8 C 16,4 C 8,0 km/h (2 Bft) 98 %
14.06.2014 09:00 16,7 C 16,4 C 16,7 C 72 % 1016,6 hPa 0,0 l/m 0,0 km/h (0 Bft) NW 315 10 min 0,127 mm 343 W/m 11,6 C 16,7 C 1,6 km/h (1 Bft) 99 %
14.06.2014 09:10 17,2 C 16,7 C 17,2 C 68 % 1016,6 hPa 0,0 l/m 0,0 km/h (0 Bft) W-NW 292 10 min 0,000 mm 490 W/m 11,2 C 17,2 C 4,8 km/h (1 Bft) 97 %
14.06.2014 09:20 17,3 C 17,2 C 17,4 C 69 % 1016,6 hPa 0,0 l/m 0,0 km/h (0 Bft) W-NW 292 10 min 0,000 mm 316 W/m 11,6 C 17,3 C 6,4 km/h (2 Bft) 100 %
14.06.2014 09:30 17,2 C 17,2 C 17,3 C 68 % 1016,7 hPa 0,0 l/m 0,0 km/h (0 Bft) S 180 0 min 0,000 mm 121 W/m 11,2 C 17,2 C 1,6 km/h (1 Bft) 100 %
14.06.2014 09:40 17,0 C 17,0 C 17,2 C 68 % 1016,7 hPa 0,0 l/m 1,6 km/h (1 Bft) NW 315 10 min 0,000 mm 237 W/m 11,0 C 17,0 C 9,7 km/h (2 Bft) 100 %
14.06.2014 09:50 17,0 C 16,9 C 17,1 C 68 % 1016,7 hPa 0,0 l/m 1,6 km/h (1 Bft) N-NW 337 10 min 0,000 mm 292 W/m 11,0 C 17,0 C 6,4 km/h (2 Bft) 100 %
14.06.2014 10:20 17,9 C 16,9 C 18,0 C 64 % 1016,6 hPa 0,0 l/m 0,5 km/h (0 Bft) NW 322 30 min 0,128 mm 292 W/m 11,0 C 17,9 C 8,0 km/h (2 Bft) 97 %
14.06.2014 10:30 17,8 C 17,8 C 17,9 C 66 % 1016,7 hPa 0,0 l/m 1,4 km/h (1 Bft) N-NW 336 10 min 0,000 mm 274 W/m 11,4 C 17,8 C 11,3 km/h (2 Bft) 98 %
14.06.2014 10:40 18,4 C 17,8 C 18,4 C 64 % 1016,6 hPa 0,0 l/m 1,1 km/h (1 Bft) N 349 10 min 0,000 mm 197 W/m 11,5 C 18,4 C 9,7 km/h (2 Bft) 98 %
14.06.2014 10:50 18,2 C 18,2 C 18,4 C 64 % 1016,6 hPa 0,0 l/m 1,2 km/h (1 Bft) NW 321 0 min 0,000 mm 118 W/m 11,3 C 18,2 C 6,4 km/h (2 Bft) 89 %
14.06.2014 11:00 17,8 C 17,8 C 18,2 C 64 % 1016,6 hPa 0,0 l/m 0,5 km/h (0 Bft) NW 321 10 min 0,178 mm 230 W/m 10,9 C 17,8 C 4,8 km/h (1 Bft) 97 %
14.06.2014 11:10 18,0 C 17,7 C 18,0 C 62 % 1016,6 hPa 0,0 l/m 2,9 km/h (1 Bft) NW 322 10 min 0,000 mm 1046 W/m 10,6 C 18,0 C 9,7 km/h (2 Bft) 98 %
14.06.2014 11:20 18,4 C 18,0 C 18,4 C 58 % 1016,6 hPa 0,0 l/m 4,6 km/h (1 Bft) N-NW 338 10 min 0,000 mm 218 W/m 10,0 C 18,4 C 17,7 km/h (3 Bft) 97 %
14.06.2014 11:30 18,2 C 18,2 C 18,4 C 60 % 1016,6 hPa 0,0 l/m 2,8 km/h (1 Bft) NW 309 10 min 0,000 mm 244 W/m 10,3 C 18,2 C 11,3 km/h (2 Bft) 98 %
14.06.2014 11:40 18,6 C 18,1 C 18,6 C 60 % 1016,6 hPa 0,0 l/m 3,6 km/h (1 Bft) N-NW 342 10 min 0,000 mm 302 W/m 10,7 C 18,6 C 11,3 km/h (2 Bft) 97 %
14.06.2014 11:50 18,6 C 18,6 C 18,7 C 60 % 1016,7 hPa 0,0 l/m 7,0 km/h (2 Bft) NW 326 10 min 0,000 mm 297 W/m 10,7 C 18,3 C 17,7 km/h (3 Bft) 97 %
14.06.2014 12:00 18,7 C 18,6 C 18,7 C 59 % 1016,7 hPa 0,0 l/m 5,6 km/h (1 Bft) W-NW 299 10 min 0,254 mm 399 W/m 10,5 C 18,7 C 17,7 km/h (3 Bft) 98 %
14.06.2014 12:10 18,8 C 18,7 C 18,8 C 57 % 1016,7 hPa 0,0 l/m 9,6 km/h (2 Bft) NW 315 10 min 0,000 mm 383 W/m 10,1 C 17,5 C 20,9 km/h (4 Bft) 97 %
14.06.2014 12:20 19,0 C 18,8 C 19,1 C 56 % 1016,7 hPa 0,0 l/m 12,3 km/h (3 Bft) NW 309 10 min 0,000 mm 306 W/m 10,0 C 16,8 C 25,7 km/h (4 Bft) 98 %
14.06.2014 12:30 19,6 C 19,0 C 19,6 C 56 % 1016,6 hPa 0,0 l/m 5,7 km/h (1 Bft) N-NW 327 10 min 0,000 mm 1011 W/m 10,6 C 19,6 C 19,3 km/h (3 Bft) 97 %
14.06.2014 12:40 20,3 C 19,6 C 20,3 C 56 % 1016,4 hPa 0,0 l/m 5,6 km/h (1 Bft) NW 310 10 min 0,000 mm 1127 W/m 11,2 C 20,3 C 16,1 km/h (3 Bft) 97 %
14.06.2014 12:50 20,2 C 20,2 C 20,4 C 52 % 1016,5 hPa 0,0 l/m 7,5 km/h (2 Bft) NW 321 10 min 0,000 mm 413 W/m 10,0 C 19,8 C 20,9 km/h (4 Bft) 98 %
14.06.2014 13:00 20,0 C 20,0 C 20,2 C 54 % 1016,5 hPa 0,0 l/m 8,3 km/h (2 Bft) NW 313 10 min 0,407 mm 670 W/m 10,4 C 19,2 C 24,1 km/h (4 Bft) 96 %
14.06.2014 13:10 19,6 C 19,6 C 20,0 C 52 % 1016,7 hPa 0,0 l/m 5,7 km/h (1 Bft) NW 314 10 min 0,000 mm 401 W/m 9,5 C 19,6 C 17,7 km/h (3 Bft) 98 %
14.06.2014 13:20 19,3 C 19,3 C 19,6 C 52 % 1016,6 hPa 0,0 l/m 10,3 km/h (2 Bft) NW 315 10 min 0,000 mm 1056 W/m 9,2 C 17,8 C 24,1 km/h (4 Bft) 97 %
14.06.2014 13:30 20,1 C 19,3 C 20,1 C 52 % 1016,7 hPa 0,0 l/m 8,9 km/h (2 Bft) NW 319 10 min 0,000 mm 983 W/m 9,9 C 19,1 C 22,5 km/h (4 Bft) 98 %
14.06.2014 13:40 20,4 C 20,1 C 20,5 C 50 % 1016,6 hPa 0,0 l/m 6,1 km/h (2 Bft) NW 315 10 min 0,000 mm 958 W/m 9,6 C 20,4 C 19,3 km/h (3 Bft) 97 %
14.06.2014 13:50 20,9 C 20,1 C 20,9 C 46 % 1016,6 hPa 0,0 l/m 13,0 km/h (3 Bft) NW 316 10 min 0,000 mm 1093 W/m 8,8 C 18,8 C 24,1 km/h (4 Bft) 97 %
14.06.2014 14:00 21,4 C 20,1 C 21,4 C 47 % 1016,6 hPa 0,0 l/m 8,4 km/h (2 Bft) NW 322 10 min 0,533 mm 1114 W/m 9,6 C 20,7 C 19,3 km/h (3 Bft) 98 %
14.06.2014 14:10 21,2 C 21,2 C 21,6 C 44 % 1016,5 hPa 0,0 l/m 5,9 km/h (2 Bft) NW 315 10 min 0,000 mm 1165 W/m 8,5 C 21,2 C 24,1 km/h (4 Bft) 97 %
14.06.2014 14:20 20,7 C 20,7 C 21,2 C 46 % 1016,5 hPa 0,0 l/m 11,3 km/h (2 Bft) N-NW 328 10 min 0,000 mm 364 W/m 8,7 C 19,0 C 29,0 km/h (5 Bft) 98 %
14.06.2014 14:30 21,1 C 20,7 C 21,1 C 45 % 1016,5 hPa 0,0 l/m 9,2 km/h (2 Bft) NW 325 10 min 0,000 mm 1044 W/m 8,7 C 20,1 C 20,9 km/h (4 Bft) 97 %
14.06.2014 14:40 21,3 C 21,1 C 21,3 C 43 % 1016,5 hPa 0,0 l/m 8,5 km/h (2 Bft) NW 311 10 min 0,000 mm 983 W/m 8,2 C 20,5 C 19,3 km/h (3 Bft) 98 %
14.06.2014 14:50 21,3 C 21,3 C 21,4 C 42 % 1016,4 hPa 0,0 l/m 7,0 km/h (2 Bft) NW 313 10 min 0,000 mm 320 W/m 7,9 C 21,1 C 27,4 km/h (4 Bft) 97 %
14.06.2014 15:00 21,2 C 21,2 C 21,3 C 45 % 1016,5 hPa 0,0 l/m 8,3 km/h (2 Bft) NW 309 10 min 0,508 mm 1088 W/m 8,8 C 20,5 C 22,5 km/h (4 Bft) 98 %
14.06.2014 15:10 22,1 C 21,2 C 22,1 C 43 % 1016,5 hPa 0,0 l/m 10,7 km/h (2 Bft) NW 318 10 min 0,000 mm 993 W/m 8,9 C 20,8 C 24,1 km/h (4 Bft) 97 %
14.06.2014 15:20 22,5 C 22,1 C 22,5 C 42 % 1016,4 hPa 0,0 l/m 9,8 km/h (2 Bft) NO 51 10 min 0,000 mm 942 W/m 8,9 C 21,5 C 24,1 km/h (4 Bft) 97 %
14.06.2014 15:30 22,4 C 22,4 C 22,7 C 42 % 1016,4 hPa 0,0 l/m 5,9 km/h (2 Bft) N-NW 344 10 min 0,000 mm 230 W/m 8,9 C 22,4 C 22,5 km/h (4 Bft) 98 %
14.06.2014 15:40 21,1 C 21,1 C 22,4 C 46 % 1016,5 hPa 0,0 l/m 8,4 km/h (2 Bft) NW 320 10 min 0,000 mm 376 W/m 9,0 C 20,4 C 24,1 km/h (4 Bft) 97 %
14.06.2014 15:50 21,1 C 20,8 C 21,1 C 47 % 1016,5 hPa 0,0 l/m 7,9 km/h (2 Bft) N-NW 330 10 min 0,000 mm 909 W/m 9,3 C 20,5 C 19,3 km/h (3 Bft) 97 %
14.06.2014 16:00 21,9 C 21,1 C 21,9 C 45 % 1016,5 hPa 0,0 l/m 9,5 km/h (2 Bft) NW 316 10 min 0,533 mm 803 W/m 9,4 C 20,9 C 24,1 km/h (4 Bft) 97 %
14.06.2014 16:10 21,9 C 21,8 C 21,9 C 44 % 1016,2 hPa 0,0 l/m 7,9 km/h (2 Bft) W 281 10 min 0,000 mm 756 W/m 9,1 C 21,4 C 20,9 km/h (4 Bft) 98 %
14.06.2014 16:20 21,8 C 21,8 C 22,0 C 42 % 1016,3 hPa 0,0 l/m 8,0 km/h (2 Bft) NW 318 10 min 0,000 mm 793 W/m 8,3 C 21,2 C 22,5 km/h (4 Bft) 97 %
14.06.2014 16:30 21,9 C 21,8 C 21,9 C 42 % 1016,3 hPa 0,0 l/m 8,1 km/h (2 Bft) W-NW 299 10 min 0,000 mm 780 W/m 8,4 C 21,3 C 20,9 km/h (4 Bft) 98 %
14.06.2014 16:40 22,1 C 21,9 C 22,1 C 41 % 1016,3 hPa 0,0 l/m 8,2 km/h (2 Bft) N 355 10 min 0,000 mm 724 W/m 8,2 C 21,5 C 20,9 km/h (4 Bft) 98 %
14.06.2014 16:50 21,9 C 21,9 C 22,1 C 42 % 1016,2 hPa 0,0 l/m 11,5 km/h (2 Bft) NW 313 10 min 0,000 mm 207 W/m 8,4 C 20,3 C 24,1 km/h (4 Bft) 97 %
14.06.2014 17:00 20,6 C 20,6 C 21,9 C 44 % 1016,3 hPa 0,0 l/m 9,8 km/h (2 Bft) N 355 10 min 0,432 mm 158 W/m 7,9 C 19,4 C 19,3 km/h (3 Bft) 98 %
14.06.2014 17:10 19,8 C 19,8 C 20,6 C 49 % 1016,3 hPa 0,0 l/m 5,4 km/h (1 Bft) NW 322 10 min 0,000 mm 464 W/m 8,8 C 19,8 C 22,5 km/h (4 Bft) 97 %
14.06.2014 17:20 20,1 C 19,8 C 20,1 C 49 % 1016,3 hPa 0,0 l/m 3,7 km/h (1 Bft) S-SO 159 10 min 0,000 mm 271 W/m 9,0 C 20,1 C 14,5 km/h (3 Bft) 97 %
14.06.2014 17:30 20,1 C 19,9 C 20,1 C 49 % 1016,3 hPa 0,0 l/m 2,2 km/h (1 Bft) N-NW 332 10 min 0,000 mm 374 W/m 9,0 C 20,1 C 17,7 km/h (3 Bft) 98 %
14.06.2014 17:40 20,6 C 20,1 C 20,6 C 45 % 1016,3 hPa 0,0 l/m 12,4 km/h (3 Bft) NW 318 10 min 0,000 mm 269 W/m 8,2 C 18,6 C 25,7 km/h (4 Bft) 97 %
14.06.2014 17:50 20,1 C 20,1 C 20,6 C 48 % 1016,4 hPa 0,0 l/m 10,9 km/h (2 Bft) N-NW 329 10 min 0,000 mm 248 W/m 8,7 C 18,5 C 25,7 km/h (4 Bft) 98 %
14.06.2014 18:00 19,6 C 19,6 C 20,1 C 48 % 1016,3 hPa 0,0 l/m 5,9 km/h (2 Bft) N-NW 328 10 min 0,280 mm 181 W/m 8,3 C 19,6 C 17,7 km/h (3 Bft) 97 %
14.06.2014 18:10 18,8 C 18,8 C 19,6 C 51 % 1016,4 hPa 0,0 l/m 2,8 km/h (1 Bft) N-NW 335 10 min 0,000 mm 195 W/m 8,4 C 18,8 C 14,5 km/h (3 Bft) 97 %
14.06.2014 18:20 18,4 C 18,4 C 18,8 C 52 % 1016,4 hPa 0,0 l/m 4,6 km/h (1 Bft) NW 323 10 min 0,000 mm 211 W/m 8,4 C 18,4 C 16,1 km/h (3 Bft) 98 %
14.06.2014 18:30 18,4 C 18,4 C 18,4 C 52 % 1016,5 hPa 0,0 l/m 7,7 km/h (2 Bft) NW 325 10 min 0,000 mm 220 W/m 8,4 C 17,8 C 22,5 km/h (4 Bft) 97 %
14.06.2014 18:40 18,4 C 18,4 C 18,4 C 52 % 1016,5 hPa 0,0 l/m 6,9 km/h (2 Bft) N 349 10 min 0,000 mm 202 W/m 8,4 C 18,2 C 19,3 km/h (3 Bft) 97 %
14.06.2014 18:50 18,3 C 18,3 C 18,4 C 51 % 1016,5 hPa 0,0 l/m 7,1 km/h (2 Bft) NW 319 10 min 0,000 mm 165 W/m 8,0 C 18,0 C 22,5 km/h (4 Bft) 97 %
14.06.2014 19:00 18,1 C 18,1 C 18,3 C 52 % 1016,5 hPa 0,0 l/m 6,2 km/h (2 Bft) N 5 0 min 0,152 mm 148 W/m 8,1 C 18,1 C 22,5 km/h (4 Bft) 98 %
14.06.2014 19:10 17,7 C 17,7 C 18,1 C 52 % 1016,6 hPa 0,0 l/m 3,8 km/h (1 Bft) NW 316 10 min 0,000 mm 158 W/m 7,7 C 17,7 C 12,9 km/h (3 Bft) 97 %
14.06.2014 19:20 17,4 C 17,4 C 17,7 C 54 % 1016,6 hPa 0,0 l/m 4,6 km/h (1 Bft) N-NW 336 0 min 0,000 mm 109 W/m 8,0 C 17,4 C 17,7 km/h (3 Bft) 97 %
14.06.2014 19:30 17,2 C 17,2 C 17,4 C 55 % 1016,6 hPa 0,0 l/m 4,7 km/h (1 Bft) N 355 0 min 0,000 mm 102 W/m 8,1 C 17,2 C 14,5 km/h (3 Bft) 98 %
14.06.2014 19:40 16,9 C 16,9 C 17,2 C 56 % 1016,6 hPa 0,0 l/m 1,0 km/h (0 Bft) NW 309 0 min 0,000 mm 81 W/m 8,1 C 16,9 C 8,0 km/h (2 Bft) 97 %
14.06.2014 19:50 16,8 C 16,8 C 16,9 C 57 % 1016,6 hPa 0,0 l/m 1,5 km/h (1 Bft) N 355 0 min 0,000 mm 72 W/m 8,2 C 16,8 C 6,4 km/h (2 Bft) 99 %
14.06.2014 20:00 16,7 C 16,7 C 16,8 C 57 % 1016,8 hPa 0,0 l/m 1,2 km/h (1 Bft) NW 323 0 min 0,076 mm 69 W/m 8,1 C 16,7 C 8,0 km/h (2 Bft) 98 %
14.06.2014 20:10 16,5 C 16,5 C 16,7 C 54 % 1016,9 hPa 0,0 l/m 4,9 km/h (1 Bft) N-NW 336 0 min 0,000 mm 60 W/m 7,2 C 16,5 C 16,1 km/h (3 Bft) 98 %
14.06.2014 20:20 16,3 C 16,3 C 16,5 C 55 % 1016,9 hPa 0,0 l/m 4,1 km/h (1 Bft) NW 324 0 min 0,000 mm 58 W/m 7,2 C 16,3 C 20,9 km/h (4 Bft) 97 %
14.06.2014 20:30 16,3 C 16,3 C 16,3 C 54 % 1016,9 hPa 0,0 l/m 4,8 km/h (1 Bft) N-NW 340 0 min 0,000 mm 53 W/m 7,0 C 16,3 C 16,1 km/h (3 Bft) 98 %
14.06.2014 20:40 16,3 C 16,3 C 16,3 C 55 % 1017,0 hPa 0,0 l/m 3,7 km/h (1 Bft) NW 325 0 min 0,000 mm 25 W/m 7,2 C 16,3 C 16,1 km/h (3 Bft) 97 %
14.06.2014 20:50 16,1 C 16,1 C 16,3 C 55 % 1017,1 hPa 0,0 l/m 3,2 km/h (1 Bft) N-NW 348 0 min 0,000 mm 19 W/m 7,1 C 16,1 C 11,3 km/h (2 Bft) 97 %
14.06.2014 21:00 15,9 C 15,9 C 16,1 C 57 % 1017,2 hPa 0,0 l/m 1,4 km/h (1 Bft) NW 325 0 min 0,051 mm 16 W/m 7,4 C 15,9 C 8,0 km/h (2 Bft) 98 %
14.06.2014 21:10 15,5 C 15,4 C 15,9 C 60 % 1017,2 hPa 0,0 l/m 0,0 km/h (0 Bft) N-NW 337 0 min 0,000 mm 16 W/m 7,8 C 15,5 C 3,2 km/h (1 Bft) 100 %
14.06.2014 21:20 14,9 C 14,9 C 15,4 C 63 % 1017,3 hPa 0,0 l/m 0,0 km/h (0 Bft) N-NW 337 0 min 0,000 mm 11 W/m 7,9 C 14,9 C 4,8 km/h (1 Bft) 99 %
14.06.2014 21:30 14,3 C 14,3 C 14,9 C 66 % 1017,5 hPa 0,0 l/m 0,0 km/h (0 Bft) NW 315 0 min 0,000 mm 7 W/m 8,0 C 14,3 C 1,6 km/h (1 Bft) 100 %
14.06.2014 21:40 13,9 C 13,9 C 14,3 C 68 % 1017,6 hPa 0,0 l/m 0,0 km/h (0 Bft) NW 315 0 min 0,000 mm 0 W/m 8,1 C 13,9 C 1,6 km/h (1 Bft) 99 %
14.06.2014 21:50 13,7 C 13,7 C 13,8 C 70 % 1017,7 hPa 0,0 l/m 0,0 km/h (0 Bft) NW 315 0 min 0,000 mm 0 W/m 8,3 C 13,7 C 1,6 km/h (1 Bft) 100 %
14.06.2014 22:00 13,6 C 13,6 C 13,7 C 70 % 1017,9 hPa 0,0 l/m 0,0 km/h (0 Bft) NW 315 0 min 0,000 mm 0 W/m 8,2 C 13,6 C 1,6 km/h (1 Bft) 99 %
14.06.2014 22:10 13,4 C 13,4 C 13,6 C 72 % 1018,0 hPa 0,0 l/m 0,0 km/h (0 Bft) NW 315 0 min 0,000 mm 0 W/m 8,5 C 13,4 C 1,6 km/h (1 Bft) 100 %
14.06.2014 22:20 13,4 C 13,4 C 13,4 C 72 % 1018,0 hPa 0,0 l/m 0,0 km/h (0 Bft) N 0 0 min 0,000 mm 0 W/m 8,5 C 13,4 C 0,0 km/h (0 Bft) 100 %
14.06.2014 22:30 13,4 C 13,4 C 13,4 C 72 % 1018,2 hPa 0,0 l/m 0,0 km/h (0 Bft) N 0 0 min 0,000 mm 0 W/m 8,5 C 13,4 C 0,0 km/h (0 Bft) 99 %
14.06.2014 22:40 13,3 C 13,3 C 13,4 C 72 % 1018,4 hPa 0,0 l/m 0,0 km/h (0 Bft) N 0 0 min 0,000 mm 0 W/m 8,4 C 13,3 C 0,0 km/h (0 Bft) 100 %
14.06.2014 22:50 13,3 C 13,3 C 13,3 C 71 % 1018,3 hPa 0,0 l/m 0,0 km/h (0 Bft) NW 315 0 min 0,000 mm 0 W/m 8,2 C 13,3 C 1,6 km/h (1 Bft) 100 %
14.06.2014 23:00 13,4 C 13,3 C 13,5 C 69 % 1018,3 hPa 0,0 l/m 0,0 km/h (0 Bft) NW 315 0 min 0,025 mm 0 W/m 7,8 C 13,4 C 1,6 km/h (1 Bft) 100 %
14.06.2014 23:10 13,6 C 13,5 C 13,6 C 68 % 1018,4 hPa 0,0 l/m 0,0 km/h (0 Bft) N 0 0 min 0,000 mm 0 W/m 7,8 C 13,6 C 0,0 km/h (0 Bft) 100 %
14.06.2014 23:20 13,7 C 13,6 C 13,7 C 69 % 1018,4 hPa 0,0 l/m 0,0 km/h (0 Bft) N 360 0 min 0,000 mm 0 W/m 8,1 C 13,7 C 6,4 km/h (2 Bft) 100 %
14.06.2014 23:30 13,6 C 13,6 C 13,7 C 68 % 1018,4 hPa 0,0 l/m 0,0 km/h (0 Bft) N 360 0 min 0,000 mm 0 W/m 7,8 C 13,6 C 1,6 km/h (1 Bft) 99 %
14.06.2014 23:40 13,4 C 13,4 C 13,6 C 70 % 1018,4 hPa 0,0 l/m 0,0 km/h (0 Bft) N 0 0 min 0,000 mm 0 W/m 8,0 C 13,4 C 0,0 km/h (0 Bft) 100 %
14.06.2014 23:50 13,1 C 13,1 C 13,4 C 71 % 1018,6 hPa 0,0 l/m 0,0 km/h (0 Bft) N 0 0 min 0,000 mm 0 W/m 8,0 C 13,1 C 0,0 km/h (0 Bft) 100 %
_ Min-Zeit 06:20 06:20 06:30 16:40 16:10 - 00:00 - - - - - 20:30 06:20 00:00 10:50
Minimum _ 10,9 C 10,9 C 10,9 C 41 % 1016,2 hPa - 0,0 km/h (0 Bft) - - - - - 7,0 C 10,9 C 0,0 km/h (0 Bft) 89 %
_ Max-Zeit 15:30 15:30 15:30 07:30 23:50 00:00 13:50 - - 10:20 14:00 14:10 08:50 15:30 14:20 09:50
Maximum _ 22,7 C 22,4 C 22,7 C 87 % 1018,6 hPa 0,0 l/m 13,0 km/h
NW (3 Bft)
- - 30 min 0,533 mm 1165 W/m 11,8 C 22,4 C 29,0 km/h
NW (5 Bft)
100 %
Durchschnitt _ 16,1 C 15,9 C 16,2 C 66 % 1016,9 hPa #0,0 l/m 2,9 km/h (1 Bft) NW - #10:50 h #3,835 mm 354 W/m 9,2 C 15,9 C 9,3 km/h (2 Bft) 98 %
PRIVATE WETTERSTATION BILLIGHEIM-ALLFELD - www.neckar-odenwald-wetter.de - Holger Sonntag